This demonstration page uses our WeatherBlox Daily Observations layout. Learn more.

Left ArrowRight Arrow

38.80484, -77.04692

Hourly Observations for October 3, 2021

Temp ( °F °C ) Dew Point ( °F °C ) Humidity (%) Winds ( mph kmh ) Pressure ( in mb ) Visibility ( mi km ) Precip ( " mm )
12:52 am 00:52 Cloudy 67 19.4 62 16.7 84 84 Calm 30.06 1018 10 16 0.00 0.00
1:52 am 01:52 Cloudy 66 18.9 62 16.7 87 87 SW 3 6 30.06 1018 10 16 0.00 0.00
2:52 am 02:52 Partly Cloudy 65 18.3 62 16.7 90 90 Calm 30.05 1018 9 14 0.00 0.00
3:52 am 03:52 Mostly Cloudy 65 18.3 61 16.1 87 87 SSW 3 6 30.04 1017 9 14 0.00 0.00
4:52 am 04:52 Mostly Cloudy 64 17.8 61 16.1 90 90 SW 3 6 30.03 1017 8 13 0.00 0.00
5:21 am 05:21 Mostly Cloudy 64 17.8 61 16.1 90 90 SW 3 6 30.03 1017 8 13 0.00 0.00
5:40 am 05:40 Mostly Cloudy with Mist and Fog 63 17.2 61 16.1 93 93 SW 5 7 30.03 1017 3 5 0.00 0.00
5:52 am 05:52 Mostly Cloudy with Mist and Fog 63 17.2 61 16.1 93 93 SW 6 9 30.03 1017 3 5 0.00 0.00
6:52 am 06:52 Partly Cloudy with Mist and Fog 63 17.2 61 16.1 93 93 S 5 7 30.03 1017 4 6 0.00 0.00
7:18 am 07:18 Partly Cloudy with Mist and Fog 63 17.2 61 16.1 93 93 SSW 6 9 30.03 1017 2 2 0.00 0.00
7:22 am 07:22 Mostly Cloudy with Mist and Fog 63 17.2 61 16.1 93 93 SSW 6 9 30.03 1017 1 1 0.00 0.00
7:52 am 07:52 Cloudy with Mist and Fog 63 17.2 62 16.7 97 97 SSW 6 9 30.03 1017 1 1 0.00 0.00
8:15 am 08:15 Cloudy with Mist and Fog 64 17.8 62 16.7 93 93 VRB 3 6 30.04 1017 2 3 0.00 0.00
8:30 am 08:30 Cloudy with Mist and Fog 64 17.8 62 16.7 93 93 SW 7 11 30.04 1017 1 2 0.00 0.00
8:50 am 08:50 Cloudy with Mist and Fog 64 18 63 17 94 94 SW 5 7 30.04 1017 3 5 0.00 0.00
8:51 am 08:51 Cloudy with Mist and Fog 65 18.3 62 16.7 90 90 SW 3 6 30.04 1017 3 5 0.00 0.00
9:05 am 09:05 Mostly Cloudy with Mist and Fog 65 18.3 63 17.2 93 93 SSW 5 7 30.04 1017 6 10 0.00 0.00
9:23 am 09:23 Mostly Sunny 66 18.9 63 17.2 90 90 Calm 30.04 1017 7 11 0.00 0.00
9:52 am 09:52 Mostly Sunny 68 20 63 17.2 84 84 S 3 6 30.03 1017 9 14 0.00 0.00
10:52 am 10:52 Mostly Sunny 72 22.2 64 17.8 76 76 S 7 11 30.03 1017 10 16 0.00 0.00
11:52 am 11:52 Mostly Sunny 76 24.4 64 17.8 67 67 SSE 5 7 30.01 1016 10 16 0.00 0.00
12:52 pm 12:52 Mostly Sunny 78 25.6 64 17.8 62 62 SSE 9 15 29.99 1016 10 16 0.00 0.00
1:52 pm 13:52 Partly Cloudy 81 27.2 63 17.2 54 54 S 9 15 29.96 1015 10 16 0.00 0.00
2:52 pm 14:52 Partly Cloudy 82 27.8 64 17.8 55 55 S 14 22 29.93 1014 10 16 0.00 0.00
3:52 pm 15:52 Mostly Cloudy 80 26.7 64 17.8 58 58 S 10 17 29.92 1013 10 16 0.00 0.00
4:52 pm 16:52 Mostly Cloudy 80 26.7 66 18.9 62 62 S 7 11 29.91 1013 10 16 0.00 0.00
5:52 pm 17:52 Mostly Cloudy 78 25.6 67 19.4 69 69 S 7 11 29.91 1013 10 16 0.00 0.00
8:30 pm 20:30 Mostly Cloudy 75 24 66 19 74 74 S 9 15 29.92 1013 10 16 0.00 0.00
8:35 pm 20:35 Mostly Cloudy 75 24 66 19 74 74 S 10 17 29.92 1013 10 16 0.00 0.00
8:55 pm 20:55 Partly Cloudy 73 23 66 19 78 78 S 10 17 29.92 1013 10 16 0.00 0.00
9:52 pm 21:52 Cloudy 74 23.3 66 18.9 76 76 S 9 15 29.93 1014 10 16 0.00 0.00
10:52 pm 22:52 Cloudy 74 23.3 66 18.9 76 76 S 9 15 29.92 1013 10 16 0.00 0.00
11:52 pm 23:52 Cloudy 73 22.8 66 18.9 79 79 S 9 15 29.92 1013 10 16 0.00 0.00

Powered by AerisWeather